EFW8NM EGKK-LPMA

Flight info

Callsign EFW8NM
Flight time 3h 26m
Altitude 35000
Route IMVUR N63 SAM M195 LORKU DCT POZOF DCT LOTEE DCT PINEK DCT VERAM DCT TELMU DCT PECKY DCT LIDRO
Aircraft A321/M-SDE3FGHIRWY/LB1

Departure

Time 2026-05-04 17:54
Airport London Gatwick Airport (EGKK)

Arrival

Time 2026-05-04 21:20
Airport Cristiano Ronaldo International Airport (LPMA)
Time Latitude Longitude Altitude Speed Heading
2026-05-04 16:58 51.15488 -0.16436 211 ft 0 kts 78°
2026-05-04 17:27 51.15482 -0.16478 207 ft 3 kts 78°
2026-05-04 17:27 51.15456 -0.16518 216 ft 3 kts 348°
2026-05-04 17:28 51.15433 -0.16510 213 ft 0 kts 347°
2026-05-04 17:35 51.15434 -0.16510 213 ft 0 kts 347°
2026-05-04 17:35 51.15459 -0.16563 211 ft 7 kts 270°
2026-05-04 17:35 51.15448 -0.16666 209 ft 11 kts 259°
2026-05-04 17:36 51.15449 -0.16812 212 ft 14 kts 262°
2026-05-04 17:36 51.15429 -0.16968 206 ft 15 kts 258°
2026-05-04 17:36 51.15405 -0.17127 210 ft 15 kts 248°
2026-05-04 17:36 51.15369 -0.17282 209 ft 15 kts 254°
2026-05-04 17:37 51.15309 -0.17399 210 ft 14 kts 234°
2026-05-04 17:37 51.15287 -0.17544 212 ft 14 kts 258°
2026-05-04 17:37 51.15266 -0.17695 204 ft 14 kts 257°
2026-05-04 17:37 51.15246 -0.17845 204 ft 14 kts 257°
2026-05-04 17:38 51.15224 -0.18001 208 ft 15 kts 258°
2026-05-04 17:38 51.15200 -0.18178 214 ft 17 kts 258°
2026-05-04 17:38 51.15180 -0.18360 203 ft 17 kts 261°
2026-05-04 17:38 51.15156 -0.18541 207 ft 17 kts 258°
2026-05-04 17:39 51.15105 -0.18911 205 ft 17 kts 257°
2026-05-04 17:39 51.15080 -0.19095 206 ft 17 kts 258°
2026-05-04 17:39 51.15042 -0.19259 211 ft 13 kts 211°
2026-05-04 17:40 51.14965 -0.19286 211 ft 10 kts 232°
2026-05-04 17:40 51.14946 -0.19402 206 ft 12 kts 258°
2026-05-04 17:40 51.14927 -0.19539 211 ft 14 kts 258°
2026-05-04 17:40 51.14906 -0.19691 208 ft 14 kts 257°
2026-05-04 17:41 51.14883 -0.19857 213 ft 16 kts 257°
2026-05-04 17:41 51.14858 -0.20039 204 ft 17 kts 258°
2026-05-04 17:41 51.14832 -0.20232 204 ft 19 kts 258°
2026-05-04 17:41 51.14804 -0.20433 205 ft 18 kts 258°
2026-05-04 17:42 51.14778 -0.20624 206 ft 18 kts 258°
2026-05-04 17:42 51.14751 -0.20821 211 ft 18 kts 257°
2026-05-04 17:42 51.14724 -0.21012 214 ft 18 kts 257°
2026-05-04 17:42 51.14700 -0.21184 204 ft 8 kts 258°
2026-05-04 17:43 51.14698 -0.21204 214 ft 0 kts 258°
2026-05-04 17:49 51.14698 -0.21205 214 ft 1 kts 258°
2026-05-04 17:50 51.14694 -0.21230 210 ft 4 kts 258°
2026-05-04 17:50 51.14682 -0.21299 210 ft 9 kts 246°
2026-05-04 17:50 51.14622 -0.21328 203 ft 9 kts 170°
2026-05-04 17:50 51.14616 -0.21326 203 ft 0 kts 168°
2026-05-04 17:52 51.14608 -0.21323 207 ft 3 kts 168°
2026-05-04 17:52 51.14568 -0.21301 204 ft 9 kts 154°
2026-05-04 17:52 51.14520 -0.21200 210 ft 13 kts 102°
2026-05-04 17:52 51.14524 -0.21137 203 ft 0 kts 78°
2026-05-04 17:53 51.14530 -0.21094 207 ft 17 kts 78°
2026-05-04 17:53 51.14609 -0.20522 210 ft 86 kts 77°
2026-05-04 17:54 51.14780 -0.19282 205 ft 142 kts 77°
2026-05-04 17:54 51.15018 -0.17540 452 ft 165 kts 77°
2026-05-04 17:54 51.15244 -0.15801 1206 ft 162 kts 77°
2026-05-04 17:54 51.15478 -0.14016 1731 ft 168 kts 76°
2026-05-04 17:55 51.15746 -0.12096 1910 ft 188 kts 76°
2026-05-04 17:55 51.16048 -0.09960 2047 ft 208 kts 76°
2026-05-04 17:55 51.16409 -0.07642 2343 ft 220 kts 68°
2026-05-04 17:55 51.17340 -0.05751 2832 ft 221 kts 33°
2026-05-04 17:56 51.18280 -0.05106 2970 ft 224 kts 10°
2026-05-04 17:56 51.19823 -0.05308 3005 ft 225 kts 348°
2026-05-04 17:56 51.21321 -0.06035 3001 ft 227 kts 332°
2026-05-04 17:56 51.22417 -0.07816 3004 ft 231 kts 298°
2026-05-04 17:57 51.22722 -0.10436 3003 ft 256 kts 264°
2026-05-04 17:57 51.22429 -0.13304 3003 ft 265 kts 261°
2026-05-04 17:57 51.22084 -0.16250 3007 ft 267 kts 261°
2026-05-04 17:57 51.21739 -0.19123 3006 ft 267 kts 260°
2026-05-04 17:58 51.21390 -0.22022 3000 ft 267 kts 261°
2026-05-04 17:58 51.21039 -0.24938 3015 ft 268 kts 260°
2026-05-04 17:58 51.20690 -0.27860 3014 ft 268 kts 261°
2026-05-04 17:58 51.20349 -0.30767 3015 ft 268 kts 261°
2026-05-04 17:59 51.20006 -0.33697 3004 ft 268 kts 261°
2026-05-04 17:59 51.19652 -0.36631 3302 ft 270 kts 260°
2026-05-04 17:59 51.18888 -0.42503 4764 ft 271 kts 259°
2026-05-04 18:00 51.18472 -0.45616 5451 ft 274 kts 258°
2026-05-04 18:00 51.18099 -0.48419 6076 ft 275 kts 258°
2026-05-04 18:00 51.17702 -0.51422 6727 ft 276 kts 258°
2026-05-04 18:00 51.17168 -0.54374 7316 ft 278 kts 247°
2026-05-04 18:01 51.16410 -0.57222 7930 ft 280 kts 246°
2026-05-04 18:01 51.15646 -0.60083 8544 ft 282 kts 246°
2026-05-04 18:01 51.14876 -0.62967 9145 ft 284 kts 246°
2026-05-04 18:02 51.13320 -0.68806 10242 ft 293 kts 246°
2026-05-04 18:02 51.12495 -0.71893 10351 ft 311 kts 246°
2026-05-04 18:02 51.11634 -0.75108 10464 ft 328 kts 246°
2026-05-04 18:02 51.10719 -0.78515 10627 ft 343 kts 246°
2026-05-04 18:03 51.09774 -0.82040 11022 ft 349 kts 246°
2026-05-04 18:03 51.08814 -0.85610 11496 ft 352 kts 246°
2026-05-04 18:03 51.07857 -0.89162 12004 ft 355 kts 246°
2026-05-04 18:03 51.06879 -0.92784 12495 ft 358 kts 246°
2026-05-04 18:04 51.05891 -0.96442 12979 ft 361 kts 246°
2026-05-04 18:04 51.04897 -1.00120 13502 ft 363 kts 246°
2026-05-04 18:04 51.03078 -1.06835 14359 ft 367 kts 246°
2026-05-04 18:05 51.02060 -1.10569 14792 ft 370 kts 246°
2026-05-04 18:05 51.01035 -1.14325 15235 ft 372 kts 246°
2026-05-04 18:05 51.00001 -1.18112 15671 ft 375 kts 245°
2026-05-04 18:05 50.98980 -1.21846 16089 ft 377 kts 245°
2026-05-04 18:06 50.96862 -1.29510 16957 ft 382 kts 243°
2026-05-04 18:06 50.95463 -1.33089 17390 ft 383 kts 231°
2026-05-04 18:06 50.93658 -1.36194 17786 ft 384 kts 220°
2026-05-04 18:07 50.91504 -1.38731 18187 ft 386 kts 212°
2026-05-04 18:07 50.89252 -1.41060 18578 ft 388 kts 212°
2026-05-04 18:07 50.86991 -1.43397 18960 ft 389 kts 212°
2026-05-04 18:07 50.84717 -1.45750 19293 ft 391 kts 212°
2026-05-04 18:08 50.82432 -1.48120 19664 ft 394 kts 212°
2026-05-04 18:08 50.80138 -1.50502 20041 ft 395 kts 212°
2026-05-04 18:08 50.77840 -1.52887 20419 ft 396 kts 212°
2026-05-04 18:08 50.75528 -1.55286 20787 ft 397 kts 212°
2026-05-04 18:09 50.70888 -1.60077 21518 ft 400 kts 212°
2026-05-04 18:09 50.66215 -1.64891 22247 ft 402 kts 212°
2026-05-04 18:10 50.63900 -1.67271 22599 ft 404 kts 212°
2026-05-04 18:10 50.61539 -1.69691 22909 ft 406 kts 211°
2026-05-04 18:10 50.59165 -1.72123 23233 ft 408 kts 211°
2026-05-04 18:10 50.56779 -1.74565 23571 ft 410 kts 211°
2026-05-04 18:11 50.54381 -1.77018 23861 ft 411 kts 211°
2026-05-04 18:11 50.51977 -1.79478 24156 ft 412 kts 211°
2026-05-04 18:11 50.49574 -1.81937 24447 ft 413 kts 211°
2026-05-04 18:11 50.47161 -1.84404 24742 ft 414 kts 211°
2026-05-04 18:12 50.44744 -1.86869 25116 ft 413 kts 211°
2026-05-04 18:12 50.42338 -1.89317 25459 ft 413 kts 211°
2026-05-04 18:12 50.39921 -1.91769 25747 ft 414 kts 210°
2026-05-04 18:12 50.37493 -1.94228 25990 ft 416 kts 210°
2026-05-04 18:13 50.35056 -1.96694 26254 ft 417 kts 210°
2026-05-04 18:13 50.32611 -1.99163 26525 ft 419 kts 210°
2026-05-04 18:13 50.27714 -2.04107 27071 ft 421 kts 210°
2026-05-04 18:14 50.25249 -2.06592 27342 ft 422 kts 210°
2026-05-04 18:14 50.22780 -2.09064 27614 ft 423 kts 209°
2026-05-04 18:14 50.20286 -2.11513 27877 ft 423 kts 209°
2026-05-04 18:15 50.15267 -2.16366 28385 ft 426 kts 208°
2026-05-04 18:15 50.10218 -2.21246 28859 ft 428 kts 208°
2026-05-04 18:15 50.07718 -2.23672 29068 ft 429 kts 208°
2026-05-04 18:16 50.05155 -2.26160 29290 ft 430 kts 208°
2026-05-04 18:16 50.02616 -2.28622 29534 ft 430 kts 208°
2026-05-04 18:16 50.00108 -2.31049 29834 ft 429 kts 208°
2026-05-04 18:17 49.95057 -2.35923 30347 ft 427 kts 208°
2026-05-04 18:17 49.92453 -2.38082 30514 ft 424 kts 201°
2026-05-04 18:17 49.87056 -2.41843 30861 ft 426 kts 201°
2026-05-04 18:18 49.84350 -2.43731 31032 ft 426 kts 201°
2026-05-04 18:18 49.81648 -2.45616 31204 ft 427 kts 201°
2026-05-04 18:18 49.78936 -2.47504 31364 ft 428 kts 201°
2026-05-04 18:18 49.76220 -2.49393 31541 ft 428 kts 201°
2026-05-04 18:19 49.70783 -2.53171 31887 ft 429 kts 202°
2026-05-04 18:19 49.68066 -2.55059 32079 ft 428 kts 202°
2026-05-04 18:19 49.65342 -2.56945 32249 ft 428 kts 202°
2026-05-04 18:20 49.62626 -2.58824 32412 ft 429 kts 202°
2026-05-04 18:20 49.59901 -2.60707 32583 ft 429 kts 202°
2026-05-04 18:20 49.57174 -2.62590 32726 ft 429 kts 202°
2026-05-04 18:20 49.54447 -2.64470 32896 ft 430 kts 202°
2026-05-04 18:21 49.51717 -2.66350 33054 ft 430 kts 202°
2026-05-04 18:21 49.48988 -2.68227 33217 ft 430 kts 202°
2026-05-04 18:21 49.46252 -2.70108 33390 ft 430 kts 202°
2026-05-04 18:21 49.43515 -2.71987 33527 ft 431 kts 202°
2026-05-04 18:22 49.40805 -2.73847 33662 ft 432 kts 202°
2026-05-04 18:22 49.38056 -2.75730 33812 ft 433 kts 202°
2026-05-04 18:22 49.35269 -2.77634 33940 ft 433 kts 202°
2026-05-04 18:22 49.32552 -2.79489 34065 ft 434 kts 202°
2026-05-04 18:23 49.29795 -2.81367 34181 ft 434 kts 202°
2026-05-04 18:23 49.27034 -2.83243 34289 ft 434 kts 202°
2026-05-04 18:23 49.24271 -2.85118 34417 ft 434 kts 202°
2026-05-04 18:23 49.21513 -2.86991 34535 ft 434 kts 202°
2026-05-04 18:24 49.18750 -2.88867 34647 ft 434 kts 202°
2026-05-04 18:24 49.15989 -2.90738 34774 ft 434 kts 202°
2026-05-04 18:24 49.13294 -2.92562 34918 ft 433 kts 202°
2026-05-04 18:24 49.10461 -2.94478 34994 ft 435 kts 202°
2026-05-04 18:25 49.04916 -2.98225 35002 ft 436 kts 202°
2026-05-04 18:25 48.99373 -3.01959 35002 ft 435 kts 202°
2026-05-04 18:26 48.93839 -3.05671 35002 ft 435 kts 202°
2026-05-04 18:26 48.88282 -3.09389 35002 ft 438 kts 202°
2026-05-04 18:27 48.82725 -3.13106 35004 ft 440 kts 202°
2026-05-04 18:27 48.77120 -3.16836 35011 ft 440 kts 202°
2026-05-04 18:28 48.71499 -3.20564 35016 ft 441 kts 202°
2026-05-04 18:28 48.65873 -3.24284 35018 ft 441 kts 202°
2026-05-04 18:29 48.60245 -3.28008 35023 ft 442 kts 202°
2026-05-04 18:29 48.54625 -3.31732 35026 ft 442 kts 202°
2026-05-04 18:30 48.46175 -3.37299 35021 ft 441 kts 202°
2026-05-04 18:31 48.40539 -3.40989 35019 ft 441 kts 202°
2026-05-04 18:31 48.34905 -3.44680 35026 ft 442 kts 202°
2026-05-04 18:32 48.29261 -3.48369 35013 ft 443 kts 202°
2026-05-04 18:32 48.23595 -3.52054 35006 ft 444 kts 202°
2026-05-04 18:33 48.17924 -3.55745 35006 ft 445 kts 202°
2026-05-04 18:33 48.12242 -3.59424 35008 ft 445 kts 202°
2026-05-04 18:34 48.06561 -3.63086 35010 ft 444 kts 202°
2026-05-04 18:34 48.00881 -3.66749 35010 ft 444 kts 202°
2026-05-04 18:35 47.95207 -3.70400 35011 ft 444 kts 202°
2026-05-04 18:35 47.89538 -3.74048 35018 ft 443 kts 202°
2026-05-04 18:36 47.83874 -3.77682 35021 ft 443 kts 202°
2026-05-04 18:36 47.78240 -3.81278 35026 ft 443 kts 202°
2026-05-04 18:37 47.72576 -3.84878 35018 ft 443 kts 202°
2026-05-04 18:37 47.66882 -3.88497 35026 ft 442 kts 202°
2026-05-04 18:38 47.61233 -3.92088 35023 ft 442 kts 202°
2026-05-04 18:38 47.55622 -3.95645 35019 ft 441 kts 201°
2026-05-04 18:39 47.49976 -3.99203 35021 ft 441 kts 201°
2026-05-04 18:39 47.44297 -4.02784 35028 ft 441 kts 201°
2026-05-04 18:40 47.38695 -4.06310 35023 ft 440 kts 201°
2026-05-04 18:40 47.33051 -4.09842 35023 ft 440 kts 201°
2026-05-04 18:41 47.27411 -4.13366 35019 ft 440 kts 201°
2026-05-04 18:41 47.21763 -4.16885 35022 ft 441 kts 201°
2026-05-04 18:42 47.17021 -4.19830 35020 ft 442 kts 201°
2026-05-04 18:42 47.11353 -4.23348 35019 ft 442 kts 201°
2026-05-04 18:43 47.05721 -4.26844 35021 ft 442 kts 202°
2026-05-04 18:43 47.00115 -4.30570 35024 ft 443 kts 204°
2026-05-04 18:44 46.94559 -4.34466 35020 ft 442 kts 204°
2026-05-04 18:44 46.88996 -4.38331 35023 ft 442 kts 204°
2026-05-04 18:45 46.83423 -4.42125 35030 ft 442 kts 204°
2026-05-04 18:45 46.77838 -4.45899 35026 ft 442 kts 204°
2026-05-04 18:46 46.72266 -4.49664 35027 ft 441 kts 204°
2026-05-04 18:46 46.66689 -4.53437 35024 ft 441 kts 204°
2026-05-04 18:47 46.61117 -4.57197 35026 ft 441 kts 204°
2026-05-04 18:47 46.55543 -4.60947 35023 ft 441 kts 204°
2026-05-04 18:48 46.50006 -4.64659 35023 ft 441 kts 204°
2026-05-04 18:48 46.44437 -4.68388 35030 ft 441 kts 204°
2026-05-04 18:49 46.38859 -4.72111 35025 ft 441 kts 204°
2026-05-04 18:49 46.33292 -4.75834 35030 ft 441 kts 204°
2026-05-04 18:50 46.27723 -4.79540 35029 ft 440 kts 204°
2026-05-04 18:50 46.22148 -4.83224 35033 ft 440 kts 204°
2026-05-04 18:51 46.16577 -4.86897 35030 ft 440 kts 204°
2026-05-04 18:51 46.11012 -4.90593 35030 ft 440 kts 204°
2026-05-04 18:52 46.05438 -4.94267 35026 ft 440 kts 204°
2026-05-04 18:52 45.99867 -4.97921 35028 ft 440 kts 204°
2026-05-04 18:53 45.94336 -5.01555 35030 ft 439 kts 204°
2026-05-04 18:53 45.88778 -5.05200 35028 ft 439 kts 204°
2026-05-04 18:54 45.83216 -5.08833 35024 ft 439 kts 204°
2026-05-04 18:54 45.77656 -5.12457 35031 ft 439 kts 204°
2026-05-04 18:55 45.72093 -5.16078 35026 ft 440 kts 204°
2026-05-04 18:55 45.63733 -5.21497 35024 ft 440 kts 204°
2026-05-04 18:56 45.58153 -5.25101 35024 ft 440 kts 204°
2026-05-04 18:56 45.52579 -5.28696 35027 ft 440 kts 204°
2026-05-04 18:57 45.46998 -5.32295 35029 ft 440 kts 204°
2026-05-04 18:57 45.41462 -5.35861 35029 ft 439 kts 204°
2026-05-04 18:58 45.35892 -5.39434 35033 ft 439 kts 204°
2026-05-04 18:58 45.30321 -5.42993 35038 ft 439 kts 204°
2026-05-04 18:59 45.24746 -5.46553 35032 ft 440 kts 204°
2026-05-04 18:59 45.19162 -5.50103 35028 ft 440 kts 204°
2026-05-04 19:00 45.13557 -5.53662 35029 ft 441 kts 204°
2026-05-04 19:00 45.07964 -5.57218 35032 ft 441 kts 204°
2026-05-04 19:01 45.02366 -5.60752 35028 ft 441 kts 204°
2026-05-04 19:01 44.96760 -5.64289 35032 ft 441 kts 204°
2026-05-04 19:02 44.91163 -5.67827 35035 ft 441 kts 204°
2026-05-04 19:02 44.85564 -5.71354 35044 ft 441 kts 205°
2026-05-04 19:03 44.79951 -5.74870 35025 ft 442 kts 205°
2026-05-04 19:03 44.74364 -5.78363 35025 ft 443 kts 205°
2026-05-04 19:04 44.68737 -5.81877 35032 ft 443 kts 205°
2026-05-04 19:04 44.63434 -5.86221 35032 ft 442 kts 217°
2026-05-04 19:05 44.58500 -5.91393 35035 ft 442 kts 217°
2026-05-04 19:05 44.53542 -5.96519 35035 ft 443 kts 217°
2026-05-04 19:06 44.48579 -6.01641 35037 ft 443 kts 217°
2026-05-04 19:06 44.43651 -6.06728 35034 ft 443 kts 217°
2026-05-04 19:07 44.38698 -6.11839 35042 ft 443 kts 217°
2026-05-04 19:07 44.33740 -6.16952 35040 ft 443 kts 217°
2026-05-04 19:08 44.28770 -6.22055 35039 ft 443 kts 217°
2026-05-04 19:08 44.23802 -6.27144 35031 ft 443 kts 217°
2026-05-04 19:09 44.18823 -6.32239 35044 ft 443 kts 217°
2026-05-04 19:09 44.13849 -6.37318 35046 ft 443 kts 217°
2026-05-04 19:10 44.08867 -6.42386 35047 ft 443 kts 217°
2026-05-04 19:10 44.03927 -6.47409 35044 ft 443 kts 218°
2026-05-04 19:11 43.98938 -6.52462 35042 ft 444 kts 217°
2026-05-04 19:11 43.93938 -6.57526 35052 ft 445 kts 217°
2026-05-04 19:12 43.86424 -6.65102 35058 ft 445 kts 217°
2026-05-04 19:13 43.81419 -6.70136 35053 ft 445 kts 218°
2026-05-04 19:13 43.76442 -6.75139 35068 ft 445 kts 218°
2026-05-04 19:14 43.71435 -6.80158 35071 ft 444 kts 217°
2026-05-04 19:14 43.66421 -6.85169 35077 ft 445 kts 218°
2026-05-04 19:15 43.61404 -6.90182 35068 ft 445 kts 218°
2026-05-04 19:15 43.56387 -6.95187 35080 ft 445 kts 218°
2026-05-04 19:16 43.51364 -7.00178 35089 ft 445 kts 218°
2026-05-04 19:16 43.46341 -7.05158 35090 ft 445 kts 218°
2026-05-04 19:17 43.41316 -7.10129 35095 ft 444 kts 218°
2026-05-04 19:17 43.36304 -7.15076 35095 ft 443 kts 218°
2026-05-04 19:18 43.31288 -7.20017 35100 ft 443 kts 218°
2026-05-04 19:18 43.26311 -7.24914 35104 ft 443 kts 218°
2026-05-04 19:19 43.21297 -7.29841 35093 ft 444 kts 218°
2026-05-04 19:19 43.16278 -7.34760 35099 ft 444 kts 218°
2026-05-04 19:20 43.11255 -7.39671 35104 ft 444 kts 218°
2026-05-04 19:20 43.06224 -7.44573 35108 ft 444 kts 218°
2026-05-04 19:21 43.01197 -7.49457 35112 ft 444 kts 218°
2026-05-04 19:21 42.96168 -7.54342 35102 ft 443 kts 218°
2026-05-04 19:22 42.91139 -7.59221 35111 ft 443 kts 218°
2026-05-04 19:22 42.86108 -7.64094 35107 ft 443 kts 218°
2026-05-04 19:23 42.81081 -7.68949 35105 ft 443 kts 218°
2026-05-04 19:23 42.76129 -7.73721 35105 ft 444 kts 218°
2026-05-04 19:24 42.71096 -7.78559 35106 ft 443 kts 219°
2026-05-04 19:24 42.66089 -7.83358 35111 ft 442 kts 218°
2026-05-04 19:25 42.61060 -7.88178 35111 ft 442 kts 219°
2026-05-04 19:25 42.56036 -7.92988 35114 ft 442 kts 218°
2026-05-04 19:26 42.51002 -7.97785 35112 ft 442 kts 218°
2026-05-04 19:26 42.45969 -8.02572 35112 ft 442 kts 218°
2026-05-04 19:27 42.40942 -8.07360 35112 ft 442 kts 218°
2026-05-04 19:27 42.35909 -8.12142 35113 ft 442 kts 218°
2026-05-04 19:28 42.30873 -8.16899 35108 ft 441 kts 218°
2026-05-04 19:28 42.25838 -8.21644 35115 ft 441 kts 218°
2026-05-04 19:29 42.20810 -8.26378 35113 ft 440 kts 218°
2026-05-04 19:29 42.15790 -8.31102 35112 ft 440 kts 218°
2026-05-04 19:30 42.10803 -8.35789 35103 ft 440 kts 219°
2026-05-04 19:30 42.05787 -8.40496 35092 ft 439 kts 219°
2026-05-04 19:31 42.00766 -8.45191 35106 ft 439 kts 219°
2026-05-04 19:31 41.95743 -8.49878 35108 ft 439 kts 219°
2026-05-04 19:32 41.91570 -8.53764 35115 ft 439 kts 219°
2026-05-04 19:32 41.86546 -8.58437 35099 ft 439 kts 219°
2026-05-04 19:33 41.80872 -8.64081 35113 ft 435 kts 224°
2026-05-04 19:33 41.76999 -8.68461 35120 ft 434 kts 225°
2026-05-04 19:34 41.72408 -8.73710 35109 ft 434 kts 224°
2026-05-04 19:34 41.67752 -8.78871 35113 ft 435 kts 224°
2026-05-04 19:35 41.63088 -8.83937 35100 ft 434 kts 224°
2026-05-04 19:35 41.58402 -8.89007 35121 ft 433 kts 224°
2026-05-04 19:36 41.53738 -8.94071 35125 ft 431 kts 224°
2026-05-04 19:36 41.49098 -8.99122 35138 ft 431 kts 224°
2026-05-04 19:37 41.44448 -9.04170 35136 ft 430 kts 224°
2026-05-04 19:37 41.39802 -9.09197 35114 ft 430 kts 225°
2026-05-04 19:38 41.35156 -9.14202 35127 ft 429 kts 225°
2026-05-04 19:38 41.30525 -9.19190 35132 ft 428 kts 225°
2026-05-04 19:39 41.25898 -9.24173 35141 ft 428 kts 225°
2026-05-04 19:39 41.21273 -9.29155 35136 ft 427 kts 225°
2026-05-04 19:40 41.16646 -9.34119 35129 ft 427 kts 225°
2026-05-04 19:40 41.12025 -9.39046 35143 ft 426 kts 225°
2026-05-04 19:41 41.07444 -9.43934 35146 ft 425 kts 225°
2026-05-04 19:41 41.02844 -9.48845 35134 ft 424 kts 226°
2026-05-04 19:42 40.98248 -9.53744 35144 ft 424 kts 225°
2026-05-04 19:42 40.93645 -9.58626 35109 ft 423 kts 226°
2026-05-04 19:43 40.89056 -9.63482 35141 ft 422 kts 226°
2026-05-04 19:43 40.84480 -9.68320 35148 ft 421 kts 226°
2026-05-04 19:44 40.79915 -9.73136 35154 ft 420 kts 226°
2026-05-04 19:44 40.75393 -9.77914 35153 ft 419 kts 226°
2026-05-04 19:45 40.70834 -9.82706 35128 ft 419 kts 226°
2026-05-04 19:45 40.66271 -9.87493 35136 ft 418 kts 226°
2026-05-04 19:46 40.61733 -9.92250 35142 ft 417 kts 226°
2026-05-04 19:46 40.57188 -9.97002 35154 ft 416 kts 226°
2026-05-04 19:47 40.52656 -10.01738 35156 ft 416 kts 226°
2026-05-04 19:47 40.48130 -10.06472 35156 ft 416 kts 226°
2026-05-04 19:48 40.43603 -10.11185 35146 ft 415 kts 226°
2026-05-04 19:48 40.39083 -10.15882 35158 ft 414 kts 226°
2026-05-04 19:49 40.34605 -10.20534 35151 ft 413 kts 226°
2026-05-04 19:49 40.30095 -10.25201 35154 ft 413 kts 226°
2026-05-04 19:50 40.25552 -10.29888 35156 ft 413 kts 226°
2026-05-04 19:50 40.21071 -10.34510 35158 ft 413 kts 226°
2026-05-04 19:51 40.16558 -10.39171 35167 ft 413 kts 226°
2026-05-04 19:51 40.12040 -10.43822 35169 ft 413 kts 226°
2026-05-04 19:52 40.07518 -10.48457 35169 ft 413 kts 226°
2026-05-04 19:52 40.02994 -10.53092 35169 ft 413 kts 226°
2026-05-04 19:53 39.98475 -10.57718 35098 ft 413 kts 226°
2026-05-04 19:53 39.93968 -10.62313 35140 ft 411 kts 226°
2026-05-04 19:54 39.89470 -10.66900 35156 ft 411 kts 226°
2026-05-04 19:54 39.84996 -10.71453 35164 ft 411 kts 226°
2026-05-04 19:55 39.80490 -10.76022 35178 ft 411 kts 226°
2026-05-04 19:55 39.75985 -10.80591 35171 ft 410 kts 226°
2026-05-04 19:56 39.71482 -10.85153 35155 ft 410 kts 226°
2026-05-04 19:56 39.66982 -10.89708 35172 ft 410 kts 226°
2026-05-04 19:57 39.62477 -10.94250 35149 ft 410 kts 226°
2026-05-04 19:57 39.57973 -10.98785 35161 ft 410 kts 226°
2026-05-04 19:58 39.53464 -11.03329 35174 ft 410 kts 226°
2026-05-04 19:58 39.48953 -11.07857 35151 ft 410 kts 225°
2026-05-04 19:59 39.44432 -11.12388 35166 ft 410 kts 225°
2026-05-04 19:59 39.39916 -11.16907 35175 ft 411 kts 225°
2026-05-04 20:00 39.35396 -11.21416 35179 ft 411 kts 225°
2026-05-04 20:00 39.30901 -11.25896 35184 ft 411 kts 225°
2026-05-04 20:01 39.26381 -11.30411 35189 ft 411 kts 225°
2026-05-04 20:01 39.21853 -11.34915 35141 ft 411 kts 224°
2026-05-04 20:02 39.17314 -11.39410 35156 ft 412 kts 224°
2026-05-04 20:02 39.12770 -11.43910 35168 ft 412 kts 224°
2026-05-04 20:03 39.08217 -11.48408 35175 ft 413 kts 224°
2026-05-04 20:03 39.03659 -11.52909 35183 ft 413 kts 224°
2026-05-04 20:04 38.99100 -11.57406 35160 ft 413 kts 224°
2026-05-04 20:04 38.94536 -11.61893 35177 ft 413 kts 224°
2026-05-04 20:05 38.89959 -11.66383 35186 ft 414 kts 223°
2026-05-04 20:05 38.85376 -11.70864 35187 ft 414 kts 223°
2026-05-04 20:06 38.80792 -11.75348 35199 ft 414 kts 223°
2026-05-04 20:06 38.76246 -11.79806 35195 ft 414 kts 223°
2026-05-04 20:07 38.71661 -11.84289 35177 ft 414 kts 223°
2026-05-04 20:07 38.67078 -11.88756 35186 ft 414 kts 223°
2026-05-04 20:08 38.62484 -11.93222 35190 ft 414 kts 223°
2026-05-04 20:08 38.57894 -11.97682 35195 ft 414 kts 223°
2026-05-04 20:09 38.53300 -12.02133 35199 ft 414 kts 223°
2026-05-04 20:09 38.48705 -12.06585 35170 ft 415 kts 223°
2026-05-04 20:10 38.44108 -12.11023 35188 ft 414 kts 223°
2026-05-04 20:10 38.39506 -12.15462 35196 ft 414 kts 223°
2026-05-04 20:11 38.34916 -12.19891 35200 ft 414 kts 223°
2026-05-04 20:11 38.30347 -12.24290 35209 ft 414 kts 222°
2026-05-04 20:12 38.25744 -12.28699 35214 ft 414 kts 222°
2026-05-04 20:12 38.21144 -12.33101 35208 ft 413 kts 223°
2026-05-04 20:13 38.16554 -12.37492 35215 ft 412 kts 223°
2026-05-04 20:13 38.11972 -12.41863 35209 ft 412 kts 223°
2026-05-04 20:14 38.07394 -12.46224 35217 ft 411 kts 223°
2026-05-04 20:14 38.02829 -12.50573 35207 ft 410 kts 223°
2026-05-04 20:15 37.98278 -12.54900 35189 ft 408 kts 223°
2026-05-04 20:15 37.93747 -12.59208 35196 ft 406 kts 223°
2026-05-04 20:16 37.89231 -12.63490 35199 ft 406 kts 223°
2026-05-04 20:16 37.84710 -12.67769 35199 ft 406 kts 223°
2026-05-04 20:17 37.80182 -12.72036 35205 ft 406 kts 223°
2026-05-04 20:17 37.75650 -12.76309 35205 ft 406 kts 223°
2026-05-04 20:18 37.71124 -12.80578 35203 ft 406 kts 223°
2026-05-04 20:18 37.66616 -12.84825 35208 ft 407 kts 223°
2026-05-04 20:19 37.62072 -12.89088 35209 ft 407 kts 223°
2026-05-04 20:19 37.57523 -12.93338 35215 ft 407 kts 223°
2026-05-04 20:20 37.52981 -12.97587 35215 ft 407 kts 223°
2026-05-04 20:20 37.48437 -13.01837 35215 ft 407 kts 223°
2026-05-04 20:21 37.44657 -13.05359 35187 ft 407 kts 223°
2026-05-04 20:21 37.37831 -13.11727 35204 ft 407 kts 223°
2026-05-04 20:22 37.33282 -13.15975 35201 ft 407 kts 223°
2026-05-04 20:22 37.28723 -13.20199 35206 ft 408 kts 223°
2026-05-04 20:23 37.24156 -13.24420 35217 ft 408 kts 223°
2026-05-04 20:23 37.19620 -13.28620 35192 ft 407 kts 222°
2026-05-04 20:24 37.15062 -13.32844 35206 ft 407 kts 222°
2026-05-04 20:24 37.10500 -13.37054 35214 ft 407 kts 222°
2026-05-04 20:25 37.05945 -13.41254 35217 ft 407 kts 222°
2026-05-04 20:25 37.01370 -13.45456 35220 ft 407 kts 222°
2026-05-04 20:26 36.96808 -13.49638 35217 ft 407 kts 222°
2026-05-04 20:26 36.92247 -13.53817 35197 ft 407 kts 221°
2026-05-04 20:27 36.87684 -13.57992 35204 ft 407 kts 221°
2026-05-04 20:27 36.83109 -13.62169 35210 ft 407 kts 221°
2026-05-04 20:28 36.78569 -13.66317 35226 ft 407 kts 221°
2026-05-04 20:28 36.73881 -13.70315 35227 ft 410 kts 218°
2026-05-04 20:29 36.68980 -13.73995 35220 ft 411 kts 216°
2026-05-04 20:29 36.64055 -13.77624 35201 ft 411 kts 217°
2026-05-04 20:30 36.59164 -13.81315 35210 ft 411 kts 217°
2026-05-04 20:30 36.54303 -13.85042 35222 ft 410 kts 217°
2026-05-04 20:31 36.49431 -13.88774 35214 ft 411 kts 217°
2026-05-04 20:31 36.44545 -13.92481 35215 ft 412 kts 217°
2026-05-04 20:32 36.39654 -13.96184 35197 ft 412 kts 217°
2026-05-04 20:32 36.34798 -13.99870 35216 ft 411 kts 217°
2026-05-04 20:33 36.29919 -14.03567 35224 ft 411 kts 217°
2026-05-04 20:33 36.25030 -14.07253 35229 ft 411 kts 217°
2026-05-04 20:34 36.20149 -14.10931 35233 ft 411 kts 217°
2026-05-04 20:34 36.15267 -14.14606 35233 ft 411 kts 217°
2026-05-04 20:35 36.10388 -14.18276 35220 ft 411 kts 216°
2026-05-04 20:35 36.05498 -14.21941 35220 ft 410 kts 216°
2026-05-04 20:36 36.00615 -14.25602 35226 ft 411 kts 216°
2026-05-04 20:36 35.95734 -14.29260 35224 ft 411 kts 216°
2026-05-04 20:37 35.90850 -14.32912 35223 ft 411 kts 216°
2026-05-04 20:37 35.85955 -14.36570 35206 ft 411 kts 216°
2026-05-04 20:38 35.81054 -14.40213 35214 ft 412 kts 216°
2026-05-04 20:38 35.76148 -14.43857 35217 ft 412 kts 216°
2026-05-04 20:39 35.71240 -14.47506 35218 ft 412 kts 216°
2026-05-04 20:39 35.66333 -14.51156 35222 ft 412 kts 216°
2026-05-04 20:40 35.61416 -14.54792 35231 ft 412 kts 216°
2026-05-04 20:40 35.56493 -14.58432 35214 ft 413 kts 215°
2026-05-04 20:41 35.51572 -14.62074 35215 ft 413 kts 215°
2026-05-04 20:41 35.46648 -14.65713 35218 ft 414 kts 215°
2026-05-04 20:42 35.41709 -14.69351 35216 ft 414 kts 215°
2026-05-04 20:42 35.36799 -14.72954 35217 ft 414 kts 215°
2026-05-04 20:43 35.31862 -14.76581 35197 ft 414 kts 215°
2026-05-04 20:43 35.26921 -14.80199 35206 ft 414 kts 215°
2026-05-04 20:44 35.21985 -14.83814 35212 ft 414 kts 215°
2026-05-04 20:44 35.17044 -14.87435 35217 ft 414 kts 215°
2026-05-04 20:45 35.12101 -14.91044 35217 ft 414 kts 215°
2026-05-04 20:45 35.07162 -14.94648 35215 ft 414 kts 215°
2026-05-04 20:46 35.02210 -14.98248 35216 ft 414 kts 215°
2026-05-04 20:46 34.97266 -15.01841 35217 ft 414 kts 215°
2026-05-04 20:47 34.92320 -15.05434 35214 ft 414 kts 215°
2026-05-04 20:47 34.87374 -15.09019 35211 ft 414 kts 215°
2026-05-04 20:48 34.82425 -15.12593 35208 ft 414 kts 215°
2026-05-04 20:48 34.77512 -15.16152 35195 ft 413 kts 215°
2026-05-04 20:49 34.72563 -15.19726 35205 ft 413 kts 215°
2026-05-04 20:49 34.67616 -15.23287 35205 ft 413 kts 215°
2026-05-04 20:50 34.62675 -15.26843 35206 ft 413 kts 215°
2026-05-04 20:50 34.57726 -15.30405 35206 ft 413 kts 215°
2026-05-04 20:51 34.52781 -15.33948 35206 ft 413 kts 215°
2026-05-04 20:51 34.47832 -15.37492 35191 ft 413 kts 215°
2026-05-04 20:52 34.42878 -15.41044 35187 ft 414 kts 214°
2026-05-04 20:52 34.37919 -15.44596 34956 ft 412 kts 214°
2026-05-04 20:53 34.35497 -15.46325 34595 ft 407 kts 214°
2026-05-04 20:53 34.33065 -15.48056 34150 ft 404 kts 215°
2026-05-04 20:53 34.30651 -15.49773 33688 ft 400 kts 215°
2026-05-04 20:53 34.28259 -15.51480 33233 ft 397 kts 215°
2026-05-04 20:54 34.25886 -15.53175 32786 ft 395 kts 215°
2026-05-04 20:54 34.23532 -15.54856 32329 ft 394 kts 214°
2026-05-04 20:54 34.21168 -15.56542 31895 ft 393 kts 214°
2026-05-04 20:54 34.18821 -15.58211 31472 ft 391 kts 214°
2026-05-04 20:55 34.16480 -15.59872 31042 ft 389 kts 214°
2026-05-04 20:55 34.14149 -15.61523 30601 ft 387 kts 214°
2026-05-04 20:55 34.11830 -15.63163 30154 ft 385 kts 214°
2026-05-04 20:55 34.09524 -15.64795 29654 ft 382 kts 213°
2026-05-04 20:56 34.07242 -15.66412 29163 ft 379 kts 213°
2026-05-04 20:56 34.04978 -15.68017 28674 ft 376 kts 213°
2026-05-04 20:56 34.02761 -15.69588 28211 ft 373 kts 213°
2026-05-04 20:56 34.00531 -15.71168 27745 ft 370 kts 213°
2026-05-04 20:57 33.98319 -15.72734 27279 ft 367 kts 213°
2026-05-04 20:57 33.96120 -15.74286 26814 ft 365 kts 213°
2026-05-04 20:57 33.93933 -15.75831 26366 ft 364 kts 213°
2026-05-04 20:57 33.91758 -15.77368 25930 ft 361 kts 213°
2026-05-04 20:58 33.89598 -15.78894 25486 ft 359 kts 213°
2026-05-04 20:58 33.87452 -15.80406 25064 ft 356 kts 213°
2026-05-04 20:58 33.85321 -15.81908 24644 ft 354 kts 213°
2026-05-04 20:58 33.83202 -15.83401 24217 ft 352 kts 213°
2026-05-04 20:59 33.81099 -15.84883 23824 ft 349 kts 213°
2026-05-04 20:59 33.79013 -15.86354 23351 ft 347 kts 213°
2026-05-04 20:59 33.76938 -15.87816 22872 ft 345 kts 213°
2026-05-04 20:59 33.74870 -15.89271 22392 ft 343 kts 213°
2026-05-04 21:00 33.72815 -15.90712 21935 ft 341 kts 212°
2026-05-04 21:00 33.70770 -15.92140 21489 ft 339 kts 212°
2026-05-04 21:00 33.68763 -15.93545 21007 ft 337 kts 213°
2026-05-04 21:00 33.66748 -15.94956 20573 ft 334 kts 213°
2026-05-04 21:01 33.64766 -15.96400 20136 ft 332 kts 214°
2026-05-04 21:01 33.62819 -15.97886 19705 ft 330 kts 214°
2026-05-04 21:01 33.60900 -15.99382 19280 ft 327 kts 214°
2026-05-04 21:01 33.59002 -16.00868 18901 ft 324 kts 214°
2026-05-04 21:02 33.57122 -16.02334 18543 ft 323 kts 214°
2026-05-04 21:02 33.55244 -16.03788 18125 ft 320 kts 214°
2026-05-04 21:02 33.53381 -16.05218 17702 ft 316 kts 214°
2026-05-04 21:02 33.51531 -16.06634 17284 ft 314 kts 213°
2026-05-04 21:03 33.49689 -16.08042 16864 ft 315 kts 213°
2026-05-04 21:03 33.47846 -16.09451 16468 ft 313 kts 213°
2026-05-04 21:03 33.46025 -16.10842 16077 ft 309 kts 213°
2026-05-04 21:03 33.44211 -16.12227 15758 ft 308 kts 213°
2026-05-04 21:04 33.42389 -16.13618 15441 ft 312 kts 213°
2026-05-04 21:04 33.40589 -16.14992 15129 ft 310 kts 213°
2026-05-04 21:04 33.38763 -16.16386 14812 ft 311 kts 213°
2026-05-04 21:04 33.36935 -16.17780 14506 ft 311 kts 213°
2026-05-04 21:05 33.35108 -16.19173 14197 ft 312 kts 213°
2026-05-04 21:05 33.33289 -16.20559 13881 ft 310 kts 213°
2026-05-04 21:05 33.31477 -16.21938 13540 ft 307 kts 213°
2026-05-04 21:05 33.29679 -16.23305 13197 ft 306 kts 213°
2026-05-04 21:06 33.27885 -16.24668 12903 ft 306 kts 213°
2026-05-04 21:06 33.26095 -16.26028 12623 ft 303 kts 213°
2026-05-04 21:06 33.24325 -16.27371 12339 ft 300 kts 213°
2026-05-04 21:06 33.22562 -16.28708 12059 ft 300 kts 213°
2026-05-04 21:07 33.20801 -16.30042 11783 ft 300 kts 213°
2026-05-04 21:07 33.19043 -16.31375 11506 ft 298 kts 213°
2026-05-04 21:07 33.17302 -16.32696 11236 ft 295 kts 213°
2026-05-04 21:07 33.15573 -16.34009 10966 ft 295 kts 213°
2026-05-04 21:08 33.13846 -16.35318 10705 ft 294 kts 212°
2026-05-04 21:08 33.12107 -16.36638 10441 ft 297 kts 212°
2026-05-04 21:08 33.10363 -16.37959 10196 ft 296 kts 212°
2026-05-04 21:08 33.08636 -16.39264 10101 ft 289 kts 212°
2026-05-04 21:09 33.06946 -16.40537 10109 ft 287 kts 212°
2026-05-04 21:09 33.05255 -16.41814 10108 ft 288 kts 212°
2026-05-04 21:09 33.03562 -16.43093 10125 ft 288 kts 212°
2026-05-04 21:09 33.01874 -16.44369 10129 ft 287 kts 212°
2026-05-04 21:10 33.00186 -16.45644 10126 ft 288 kts 212°
2026-05-04 21:10 32.98494 -16.46921 10128 ft 288 kts 212°
2026-05-04 21:10 32.97375 -16.47763 10127 ft 288 kts 212°
2026-05-04 21:10 32.95680 -16.49039 10129 ft 288 kts 212°
2026-05-04 21:11 32.93991 -16.50310 10128 ft 287 kts 212°
2026-05-04 21:11 32.92361 -16.51683 10126 ft 287 kts 221°
2026-05-04 21:11 32.90381 -16.53798 9696 ft 287 kts 221°
2026-05-04 21:11 32.88903 -16.55377 9327 ft 284 kts 222°
2026-05-04 21:12 32.87927 -16.56421 9088 ft 282 kts 222°
2026-05-04 21:12 32.86476 -16.57973 8728 ft 279 kts 221°
2026-05-04 21:12 32.85067 -16.59478 8375 ft 272 kts 221°
2026-05-04 21:12 32.83667 -16.60972 8015 ft 260 kts 221°
2026-05-04 21:13 32.82339 -16.62333 7676 ft 252 kts 217°
2026-05-04 21:13 32.80845 -16.63389 7344 ft 250 kts 205°
2026-05-04 21:13 32.79215 -16.64105 7031 ft 250 kts 200°
2026-05-04 21:13 32.77572 -16.64770 6710 ft 249 kts 200°
2026-05-04 21:14 32.75957 -16.65424 6387 ft 238 kts 200°
2026-05-04 21:14 32.74437 -16.66039 6027 ft 224 kts 200°
2026-05-04 21:14 32.73003 -16.66621 5687 ft 214 kts 200°
2026-05-04 21:14 32.71612 -16.67186 5348 ft 206 kts 200°
2026-05-04 21:15 32.70295 -16.67719 5002 ft 195 kts 200°
2026-05-04 21:15 32.69027 -16.68234 4620 ft 190 kts 200°
2026-05-04 21:15 32.67781 -16.68740 4226 ft 188 kts 200°
2026-05-04 21:15 32.66560 -16.69235 3808 ft 187 kts 199°
2026-05-04 21:16 32.65343 -16.69726 3628 ft 185 kts 199°
2026-05-04 21:16 32.64118 -16.70220 3568 ft 186 kts 200°
2026-05-04 21:16 32.62955 -16.70914 3162 ft 189 kts 215°
2026-05-04 21:16 32.61994 -16.71966 2666 ft 189 kts 230°
2026-05-04 21:17 32.61315 -16.73247 2396 ft 176 kts 244°
2026-05-04 21:17 32.60944 -16.74581 2261 ft 167 kts 258°
2026-05-04 21:17 32.60841 -16.75943 2168 ft 165 kts 271°
2026-05-04 21:17 32.60999 -16.77286 2089 ft 164 kts 284°
2026-05-04 21:18 32.61441 -16.78533 1928 ft 165 kts 302°
2026-05-04 21:18 32.62215 -16.79523 1685 ft 164 kts 321°
2026-05-04 21:18 32.63223 -16.80152 1449 ft 165 kts 341°
2026-05-04 21:18 32.64329 -16.80353 1239 ft 157 kts
2026-05-04 21:19 32.65402 -16.80346 1023 ft 153 kts 359°
2026-05-04 21:19 32.66459 -16.80305 820 ft 151 kts
2026-05-04 21:19 32.67455 -16.79960 637 ft 148 kts 26°
2026-05-04 21:19 32.68260 -16.79233 405 ft 145 kts 46°
2026-05-04 21:20 32.68916 -16.78462 237 ft 143 kts 46°
2026-05-04 21:20 32.69572 -16.77694 179 ft 125 kts 44°
2026-05-04 21:20 32.70061 -16.77131 176 ft 57 kts 44°
2026-05-04 21:20 32.70213 -16.76982 176 ft 10 kts 28°
2026-05-04 21:21 32.70211 -16.76956 176 ft 2 kts 158°
2026-05-04 21:21 32.70139 -16.77032 176 ft 25 kts 230°
2026-05-04 21:21 32.70006 -16.77154 176 ft 24 kts 186°
2026-05-04 21:21 32.69847 -16.77177 176 ft 22 kts 204°
2026-05-04 21:22 32.69737 -16.77303 176 ft 22 kts 226°
2026-05-04 21:22 32.69630 -16.77435 176 ft 22 kts 226°
2026-05-04 21:22 32.69526 -16.77564 176 ft 20 kts 226°
2026-05-04 21:22 32.69449 -16.77659 176 ft 7 kts 226°
2026-05-04 21:23 32.69410 -16.77695 176 ft 7 kts 192°
2026-05-04 21:23 32.69367 -16.77666 176 ft 6 kts 136°
2026-05-04 21:23 32.69360 -16.77657 176 ft 0 kts 137°